| time (UTC) | temp F | wind direction | speed MPH | gust MPH | rain 1hr in | rain 24hr in | rain mn in | humidity % | barometer mb |
| 20260507163617 | 50 | 294 | 3.0 | 8.0 | 0.02 | 0.59 | 0.59 | 95 | 1001.6 |
| 20260507163109 | 49 | 233 | 3.0 | 13.0 | 0.02 | 0.59 | 0.59 | 95 | 1001.6 |
| 20260507162607 | 49 | 255 | 6.0 | 13.0 | 0.02 | 0.59 | 0.59 | 95 | 1002.5 |
| 20260507162104 | 49 | 264 | 5.0 | 14.0 | 0.03 | 0.59 | 0.59 | 94 | 1002.4 |
| 20260507161104 | 50 | 265 | 13.0 | 17.0 | 0.03 | 0.59 | 0.59 | 94 | 1002.6 |
| 20260507160602 | 51 | 286 | 12.0 | 16.0 | 0.05 | 0.59 | 0.59 | 96 | 1002.3 |
| 20260507160110 | 52 | 240 | 4.0 | 12.0 | 0.05 | 0.59 | 0.59 | 96 | 1000.9 |
| 20260507155600 | 52 | 248 | 9.0 | 12.0 | 0.06 | 0.59 | 0.59 | 96 | 1001.6 |
| 20260507154557 | 52 | 253 | 5.0 | 11.0 | 0.08 | 0.59 | 0.59 | 97 | 1000.9 |
| 20260507153554 | 52 | 200 | 4.0 | 12.0 | 0.08 | 0.56 | 0.56 | 97 | 1001.8 |
| 20260507153053 | 52 | 262 | 6.0 | 12.0 | 0.09 | 0.56 | 0.56 | 97 | 1002.3 |
| 20260507152555 | 53 | 262 | 6.0 | 10.0 | 0.09 | 0.56 | 0.56 | 97 | 1002.2 |
| 20260507152050 | 53 | 244 | 4.0 | 9.0 | 0.09 | 0.55 | 0.55 | 97 | 1001.8 |
| 20260507151550 | 53 | 246 | 4.0 | 9.0 | 0.11 | 0.55 | 0.55 | 97 | 1001.7 |
| 20260507151045 | 53 | 258 | 0.0 | 6.0 | 0.11 | 0.55 | 0.55 | 97 | 1001.6 |
| 20260507145543 | 53 | 233 | 4.0 | 6.0 | 0.15 | 0.53 | 0.53 | 97 | 1002.0 |
| 20260507145042 | 53 | 260 | 3.0 | 6.0 | 0.13 | 0.51 | 0.51 | 97 | 1002.1 |
| 20260507143539 | 53 | 232 | 2.0 | 4.0 | 0.18 | 0.48 | 0.48 | 97 | 1002.1 |
| 20260507143039 | 53 | 34 | 1.0 | 5.0 | 0.18 | 0.47 | 0.47 | 97 | 1001.9 |
| 20260507142033 | 52 | 224 | 2.0 | 6.0 | 0.21 | 0.46 | 0.46 | 97 | 1001.8 |
| 20260507141031 | 52 | 37 | 0.0 | 4.0 | 0.20 | 0.43 | 0.44 | 97 | 1002.2 |
| 20260507140531 | 52 | 303 | 0.0 | 4.0 | 0.20 | 0.42 | 0.42 | 97 | 1002.1 |
| 20260507140030 | 52 | 308 | 0.0 | 4.0 | 0.20 | 0.41 | 0.41 | 97 | 1002.7 |
| 20260507135531 | 52 | 293 | 3.0 | 5.0 | 0.20 | 0.38 | 0.38 | 97 | 1002.8 |
| 20260507135030 | 52 | 275 | 4.0 | 5.0 | 0.23 | 0.37 | 0.37 | 97 | 1002.9 |
| 20260507134527 | 52 | 299 | 4.0 | 5.0 | 0.20 | 0.34 | 0.35 | 96 | 1002.6 |
| 20260507134028 | 52 | 256 | 4.0 | 6.0 | 0.21 | 0.33 | 0.33 | 96 | 1003.0 |
| 20260507133525 | 52 | 266 | 3.0 | 6.0 | 0.19 | 0.30 | 0.30 | 96 | 1002.9 |
| 20260507133022 | 52 | 257 | 4.0 | 7.0 | 0.18 | 0.29 | 0.29 | 96 | 1002.8 |
| 20260507132520 | 52 | 243 | 3.0 | 9.0 | 0.16 | 0.26 | 0.27 | 96 | 1002.8 |
| 20260507132031 | 53 | 234 | 4.0 | 9.0 | 0.14 | 0.25 | 0.25 | 95 | 1003.3 |
| 20260507131512 | 53 | 234 | 4.0 | 11.0 | 0.13 | 0.24 | 0.24 | 95 | 1003.5 |
| 20260507131026 | 53 | 254 | 7.0 | 12.0 | 0.12 | 0.23 | 0.23 | 95 | 1003.4 |
| 20260507130511 | 54 | 240 | 9.0 | 12.0 | 0.11 | 0.22 | 0.22 | 95 | 1003.4 |
| 20260507130009 | 54 | 248 | 6.0 | 13.0 | 0.09 | 0.20 | 0.20 | 95 | 1003.6 |
| 20260507125508 | 54 | 276 | 4.0 | 15.0 | 0.06 | 0.17 | 0.17 | 95 | 1003.7 |
| 20260507125004 | 55 | 256 | 11.0 | 20.0 | 0.04 | 0.15 | 0.15 | 94 | 1003.6 |
| 20260507124504 | 55 | 253 | 9.0 | 20.0 | 0.02 | 0.13 | 0.13 | 93 | 1003.6 |
| 20260507124004 | 55 | 247 | 18.0 | 20.0 | 0.00 | 0.11 | 0.12 | 93 | 1003.3 |
| 20260507123503 | 55 | 264 | 7.0 | 14.0 | 0.00 | 0.11 | 0.11 | 92 | 1003.2 |
| 20260507123003 | 55 | 233 | 7.0 | 9.0 | 0.00 | 0.11 | 0.11 | 92 | 1003.0 |
| 20260507122501 | 55 | 222 | 5.0 | 9.0 | 0.00 | 0.11 | 0.11 | 92 | 1002.9 |
| 20260507121959 | 56 | 253 | 3.0 | 9.0 | 0.01 | 0.11 | 0.11 | 92 | 1002.9 |
| 20260507121459 | 56 | 239 | 4.0 | 11.0 | 0.01 | 0.11 | 0.11 | 93 | 1002.8 |
| 20260507120957 | 55 | 273 | 0.0 | 11.0 | 0.01 | 0.11 | 0.11 | 93 | 1002.6 |
| 20260507120453 | 56 | 186 | 3.0 | 6.0 | 0.01 | 0.11 | 0.11 | 93 | 1002.5 |
| 20260507115952 | 56 | 160 | 3.0 | 8.0 | 0.01 | 0.11 | 0.11 | 93 | 1002.4 |
| 20260507114950 | 56 | 247 | 7.0 | 13.0 | 0.01 | 0.11 | 0.11 | 93 | 1002.8 |
| 20260507113943 | 56 | 174 | 0.0 | 9.0 | 0.01 | 0.11 | 0.11 | 93 | 1003.0 |
| 20260507113439 | 56 | 254 | 5.0 | 9.0 | 0.01 | 0.11 | 0.11 | 93 | 1002.5 |
| 20260507112939 | 56 | 179 | 3.0 | 9.0 | 0.01 | 0.11 | 0.11 | 93 | 1002.7 |
| 20260507112438 | 56 | 171 | 2.0 | 9.0 | 0.01 | 0.11 | 0.11 | 92 | 1002.9 |
| 20260507111934 | 56 | 86 | 9.0 | 9.0 | 0.00 | 0.09 | 0.09 | 91 | 1002.7 |
| 20260507111432 | 56 | 86 | 9.0 | 9.0 | 0.00 | 0.09 | 0.09 | 91 | 1003.2 |
| 20260507110928 | 56 | 86 | 9.0 | 9.0 | 0.00 | 0.09 | 0.09 | 90 | 1003.5 |
| 20260507110425 | 56 | 86 | 9.0 | 9.0 | 0.00 | 0.09 | 0.09 | 90 | 1003.4 |
| 20260507105926 | 57 | 86 | 9.0 | 9.0 | 0.00 | 0.09 | 0.09 | 90 | 1003.3 |
| 20260507105425 | 57 | 86 | 9.0 | 9.0 | 0.00 | 0.09 | 0.09 | 90 | 1003.2 |
| 20260507103922 | 57 | 86 | 9.0 | 9.0 | 0.00 | 0.09 | 0.09 | 90 | 1002.6 |
| 20260507103410 | 57 | 86 | 9.0 | 9.0 | 0.00 | 0.09 | 0.09 | 90 | 1002.3 |
| 20260507102908 | 57 | 86 | 9.0 | 9.0 | 0.00 | 0.09 | 0.09 | 90 | 1002.2 |
| 20260507102407 | 57 | 86 | 9.0 | 9.0 | 0.00 | 0.09 | 0.09 | 90 | 1002.2 |
| 20260507101908 | 57 | 86 | 9.0 | 9.0 | 0.00 | 0.09 | 0.09 | 91 | 1002.5 |
| 20260507101404 | 57 | 86 | 9.0 | 9.0 | 0.00 | 0.09 | 0.09 | 92 | 1002.4 |
| 20260507100903 | 57 | 86 | 9.0 | 9.0 | 0.00 | 0.09 | 0.09 | 92 | 1002.2 |
| 20260507100402 | 56 | 86 | 9.0 | 9.0 | 0.00 | 0.09 | 0.09 | 92 | 1002.3 |
| 20260507095902 | 56 | 86 | 9.0 | 9.0 | 0.00 | 0.09 | 0.09 | 92 | 1002.5 |
| 20260507094858 | 56 | 86 | 9.0 | 9.0 | 0.00 | 0.09 | 0.09 | 93 | 1002.7 |
| 20260507094354 | 56 | 86 | 9.0 | 9.0 | 0.00 | 0.09 | 0.09 | 93 | 1002.8 |
| 20260507093852 | 56 | 86 | 9.0 | 9.0 | 0.00 | 0.09 | 0.09 | 93 | 1003.0 |
| 20260507093350 | 56 | 86 | 9.0 | 9.0 | 0.00 | 0.09 | 0.09 | 93 | 1002.8 |
| 20260507092351 | 57 | 86 | 9.0 | 9.0 | 0.01 | 0.09 | 0.09 | 93 | 1003.2 |
| 20260507091348 | 57 | 86 | 9.0 | 17.0 | 0.01 | 0.09 | 0.09 | 91 | 1002.8 |
| 20260507090846 | 57 | 139 | 7.0 | 12.0 | 0.01 | 0.09 | 0.09 | 90 | 1002.9 |
| 20260507090345 | 57 | 195 | 6.0 | 11.0 | 0.01 | 0.09 | 0.09 | 90 | 1002.9 |
| 20260507085846 | 57 | 192 | 5.0 | 13.0 | 0.01 | 0.09 | 0.09 | 91 | 1003.0 |
| 20260507084842 | 57 | 187 | 2.0 | 12.0 | 0.01 | 0.09 | 0.09 | 92 | 1003.0 |
| 20260507084339 | 58 | 282 | 7.0 | 12.0 | 0.01 | 0.09 | 0.09 | 93 | 1002.9 |
| 20260507083841 | 58 | 207 | 2.0 | 8.0 | 0.01 | 0.09 | 0.09 | 93 | 1003.0 |
| 20260507082839 | 58 | 205 | 3.0 | 11.0 | 0.01 | 0.09 | 0.09 | 93 | 1002.9 |
| 20260507082339 | 58 | 161 | 3.0 | 14.0 | 0.01 | 0.09 | 0.09 | 92 | 1003.3 |
| 20260507081840 | 58 | 172 | 5.0 | 14.0 | 0.01 | 0.09 | 0.09 | 92 | 1003.1 |
| 20260507080339 | 58 | 191 | 5.0 | 19.0 | 0.01 | 0.09 | 0.09 | 92 | 1002.9 |
| 20260507075838 | 58 | 194 | 6.0 | 19.0 | 0.01 | 0.09 | 0.09 | 91 | 1002.6 |
| 20260507074836 | 59 | 171 | 4.0 | 21.0 | 0.01 | 0.09 | 0.09 | 90 | 1002.9 |
| 20260507074335 | 58 | 189 | 9.0 | 20.0 | 0.01 | 0.09 | 0.09 | 90 | 1002.7 |
| 20260507073332 | 58 | 139 | 10.0 | 17.0 | 0.01 | 0.09 | 0.09 | 90 | 1002.6 |
| 20260507072830 | 58 | 178 | 8.0 | 16.0 | 0.01 | 0.09 | 0.09 | 90 | 1002.4 |
| 20260507072329 | 58 | 176 | 13.0 | 18.0 | 0.00 | 0.07 | 0.07 | 90 | 1002.4 |
| 20260507071840 | 58 | 139 | 7.0 | 20.0 | 0.00 | 0.07 | 0.07 | 90 | 1002.8 |
| 20260507071327 | 58 | 165 | 12.0 | 20.0 | 0.00 | 0.07 | 0.07 | 90 | 1003.1 |
| 20260507070830 | 58 | 151 | 7.0 | 21.0 | 0.00 | 0.07 | 0.07 | 89 | 1003.2 |
| 20260507070324 | 58 | 109 | 20.0 | 21.0 | 0.00 | 0.07 | 0.07 | 89 | 1003.3 |
| 20260507065835 | 58 | 171 | 13.0 | 19.0 | 0.00 | 0.07 | 0.07 | 88 | 1003.2 |
| 20260507065322 | 59 | 156 | 8.0 | 19.0 | 0.00 | 0.07 | 0.07 | 87 | 1003.3 |
| 20260507064820 | 59 | 192 | 11.0 | 21.0 | 0.00 | 0.07 | 0.07 | 87 | 1003.6 |
| 20260507064320 | 59 | 169 | 16.0 | 21.0 | 0.00 | 0.07 | 0.07 | 86 | 1003.6 |
| 20260507063321 | 59 | 162 | 8.0 | 18.0 | 0.00 | 0.07 | 0.07 | 86 | 1004.0 |
| 20260507062820 | 59 | 155 | 15.0 | 17.0 | 0.00 | 0.07 | 0.07 | 86 | 1004.3 |
| 20260507061821 | 59 | 152 | 4.0 | 21.0 | 0.00 | 0.07 | 0.07 | 86 | 1004.4 |
| 20260507061320 | 59 | 190 | 6.0 | 15.0 | 0.00 | 0.07 | 0.07 | 87 | 1004.2 |
| 20260507060821 | 59 | 165 | 11.0 | 18.0 | 0.01 | 0.07 | 0.07 | 87 | 1004.4 |
| 20260507060320 | 59 | 165 | 9.0 | 18.0 | 0.01 | 0.07 | 0.07 | 87 | 1004.4 |
| 20260507055820 | 58 | 145 | 7.0 | 19.0 | 0.02 | 0.07 | 0.07 | 88 | 1004.6 |
| 20260507055322 | 58 | 169 | 7.0 | 19.0 | 0.02 | 0.07 | 0.07 | 88 | 1004.5 |
| 20260507054819 | 58 | 196 | 7.0 | 17.0 | 0.02 | 0.07 | 0.07 | 88 | 1004.6 |
| 20260507054319 | 58 | 156 | 8.0 | 19.0 | 0.02 | 0.07 | 0.07 | 88 | 1004.6 |
| 20260507053817 | 58 | 115 | 7.0 | 19.0 | 0.02 | 0.07 | 0.07 | 88 | 1005.1 |
| 20260507053316 | 58 | 115 | 6.0 | 18.0 | 0.02 | 0.07 | 0.07 | 88 | 1005.0 |
| 20260507052328 | 58 | 168 | 15.0 | 21.0 | 0.03 | 0.07 | 0.07 | 89 | 1005.4 |
| 20260507051816 | 58 | 158 | 9.0 | 27.0 | 0.05 | 0.07 | 0.07 | 89 | 1005.7 |
| 20260507051315 | 58 | 183 | 8.0 | 27.0 | 0.05 | 0.07 | 0.07 | 89 | 1005.7 |
| 20260507050815 | 57 | 157 | 10.0 | 19.0 | 0.05 | 0.06 | 0.06 | 90 | 1005.8 |
| 20260507050315 | 58 | 159 | 11.0 | 18.0 | 0.06 | 0.06 | 0.06 | 90 | 1006.0 |
| 20260507045815 | 58 | 117 | 11.0 | 21.0 | 0.05 | 0.05 | 0.05 | 89 | 1006.3 |
| 20260507045314 | 58 | 126 | 16.0 | 21.0 | 0.05 | 0.05 | 0.05 | 89 | 1006.4 |
| 20260507044814 | 57 | 127 | 7.0 | 17.0 | 0.05 | 0.05 | 0.05 | 89 | 1006.4 |
| 20260507044312 | 57 | 134 | 5.0 | 17.0 | 0.05 | 0.05 | 0.05 | 89 | 1006.4 |
| 20260507043810 | 57 | 106 | 10.0 | 17.0 | 0.05 | 0.05 | 0.05 | 89 | 1006.3 |
| 20260507043310 | 57 | 122 | 11.0 | 17.0 | 0.05 | 0.05 | 0.05 | 89 | 1006.8 |
| 20260507042309 | 57 | 119 | 13.0 | 18.0 | 0.04 | 0.04 | 0.04 | 89 | 1007.2 |
| 20260507041810 | 58 | 94 | 11.0 | 15.0 | 0.02 | 0.02 | 0.02 | 89 | 1007.4 |
| 20260507041310 | 58 | 139 | 6.0 | 16.0 | 0.02 | 0.02 | 0.02 | 87 | 1007.1 |
| 20260507040810 | 58 | 152 | 11.0 | 18.0 | 0.01 | 0.01 | 0.01 | 86 | 1007.6 |
| 20260507035809 | 59 | 158 | 5.0 | 17.0 | 0.00 | 0.00 | 0.00 | 82 | 1008.0 |
| 20260507035309 | 59 | 156 | 9.0 | 17.0 | 0.00 | 0.00 | 0.00 | 81 | 1008.0 |
| 20260507034809 | 60 | 148 | 5.0 | 17.0 | 0.00 | 0.00 | 0.00 | 80 | 1008.2 |
| 20260507034309 | 60 | 172 | 11.0 | 17.0 | 0.00 | 0.00 | 0.00 | 80 | 1008.2 |
| 20260507033811 | 59 | 100 | 7.0 | 16.0 | 0.00 | 0.00 | 0.00 | 80 | 1008.1 |
| 20260507033309 | 60 | 157 | 6.0 | 17.0 | 0.00 | 0.00 | 0.00 | 80 | 1008.2 |
| 20260507032758 | 60 | 116 | 7.0 | 17.0 | 0.00 | 0.00 | 0.00 | 80 | 1008.4 |
| 20260507032257 | 60 | 164 | 9.0 | 15.0 | 0.00 | 0.00 | 0.00 | 79 | 1008.2 |
| 20260507031757 | 60 | 126 | 7.0 | 15.0 | 0.00 | 0.00 | 0.00 | 79 | 1008.1 |
| 20260507031256 | 60 | 104 | 9.0 | 16.0 | 0.00 | 0.00 | 0.00 | 79 | 1008.1 |
| 20260507030757 | 60 | 127 | 6.0 | 21.0 | 0.00 | 0.00 | 0.00 | 79 | 1008.3 |
| 20260507030256 | 60 | 121 | 7.0 | 21.0 | 0.00 | 0.00 | 0.00 | 79 | 1008.4 |
| 20260507025756 | 60 | 119 | 7.0 | 17.0 | 0.00 | 0.00 | 0.00 | 78 | 1008.7 |
| 20260507025247 | 60 | 117 | 11.0 | 17.0 | 0.00 | 0.00 | 0.00 | 78 | 1008.8 |
| 20260507024748 | 60 | 108 | 6.0 | 14.0 | 0.00 | 0.00 | 0.00 | 78 | 1009.0 |
| 20260507024248 | 60 | 112 | 8.0 | 15.0 | 0.00 | 0.00 | 0.00 | 78 | 1009.2 |
| 20260507023746 | 61 | 98 | 6.0 | 16.0 | 0.00 | 0.00 | 0.00 | 77 | 1009.1 |
| 20260507023245 | 61 | 157 | 4.0 | 16.0 | 0.00 | 0.00 | 0.00 | 77 | 1009.4 |
| 20260507022745 | 61 | 127 | 4.0 | 15.0 | 0.00 | 0.00 | 0.00 | 77 | 1009.6 |
| 20260507021744 | 61 | 194 | 5.0 | 15.0 | 0.00 | 0.00 | 0.00 | 76 | 1009.8 |
| 20260507021241 | 61 | 152 | 7.0 | 14.0 | 0.00 | 0.00 | 0.00 | 76 | 1009.9 |
| 20260507020741 | 61 | 154 | 7.0 | 13.0 | 0.00 | 0.00 | 0.00 | 76 | 1009.8 |
| 20260507020242 | 61 | 133 | 4.0 | 14.0 | 0.00 | 0.00 | 0.00 | 77 | 1010.1 |
| 20260507015743 | 61 | 187 | 4.0 | 14.0 | 0.00 | 0.00 | 0.00 | 77 | 1009.9 |
| 20260507015242 | 61 | 193 | 7.0 | 13.0 | 0.00 | 0.00 | 0.00 | 77 | 1009.7 |
| 20260507014737 | 61 | 151 | 6.0 | 18.0 | 0.00 | 0.00 | 0.00 | 77 | 1009.6 |
| 20260507014233 | 62 | 116 | 7.0 | 18.0 | 0.00 | 0.00 | 0.00 | 77 | 1009.3 |
| 20260507013734 | 62 | 121 | 9.0 | 14.0 | 0.00 | 0.00 | 0.00 | 77 | 1009.8 |
| 20260507013235 | 62 | 119 | 8.0 | 17.0 | 0.00 | 0.00 | 0.00 | 76 | 1009.9 |
| 20260507012733 | 62 | 166 | 7.0 | 17.0 | 0.00 | 0.00 | 0.00 | 76 | 1010.2 |
| 20260507012233 | 62 | 106 | 5.0 | 15.0 | 0.00 | 0.00 | 0.00 | 76 | 1009.9 |
| 20260507011733 | 62 | 155 | 8.0 | 22.0 | 0.00 | 0.00 | 0.00 | 76 | 1010.2 |
| 20260507011233 | 62 | 118 | 10.0 | 22.0 | 0.00 | 0.00 | 0.00 | 76 | 1010.3 |
| 20260507010732 | 62 | 152 | 7.0 | 20.0 | 0.00 | 0.00 | 0.00 | 76 | 1010.4 |
| 20260507010231 | 63 | 155 | 9.0 | 20.0 | 0.00 | 0.00 | 0.00 | 74 | 1011.2 |
| 20260507005731 | 63 | 146 | 5.0 | 20.0 | 0.00 | 0.00 | 0.00 | 73 | 1011.1 |
| 20260507005231 | 63 | 151 | 8.0 | 18.0 | 0.00 | 0.00 | 0.00 | 74 | 1011.1 |
| 20260507004227 | 63 | 180 | 9.0 | 24.0 | 0.00 | 0.00 | 0.00 | 74 | 1011.3 |
| 20260507003727 | 63 | 152 | 12.0 | 19.0 | 0.00 | 0.00 | 0.00 | 73 | 1011.4 |
| 20260507003227 | 63 | 160 | 8.0 | 19.0 | 0.00 | 0.00 | 0.00 | 74 | 1011.2 |
| 20260507002727 | 63 | 180 | 13.0 | 19.0 | 0.00 | 0.00 | 0.00 | 73 | 1011.4 |
| 20260507002227 | 63 | 166 | 6.0 | 17.0 | 0.00 | 0.00 | 0.00 | 74 | 1011.2 |
| 20260507001727 | 63 | 83 | 4.0 | 17.0 | 0.00 | 0.00 | 0.00 | 74 | 1011.4 |
| 20260507001227 | 63 | 174 | 7.0 | 17.0 | 0.00 | 0.00 | 0.00 | 73 | 1011.5 |
| 20260507000727 | 63 | 142 | 2.0 | 16.0 | 0.00 | 0.00 | 0.00 | 73 | 1011.4 |
| 20260506235227 | 64 | 163 | 10.0 | 20.0 | 0.00 | 0.00 | 0.00 | 73 | 1011.5 |
| 20260506234726 | 63 | 155 | 10.0 | 15.0 | 0.00 | 0.00 | 0.00 | 73 | 1011.6 |
| 20260506234226 | 64 | 148 | 7.0 | 14.0 | 0.00 | 0.00 | 0.00 | 73 | 1011.6 |
| 20260506233724 | 64 | 159 | 9.0 | 15.0 | 0.00 | 0.00 | 0.00 | 73 | 1011.6 |
| 20260506233223 | 64 | 157 | 11.0 | 15.0 | 0.00 | 0.00 | 0.00 | 73 | 1011.6 |
| 20260506232723 | 64 | 187 | 4.0 | 16.0 | 0.00 | 0.00 | 0.00 | 73 | 1011.8 |
| 20260506232221 | 64 | 181 | 6.0 | 18.0 | 0.00 | 0.00 | 0.00 | 72 | 1011.7 |
| 20260506231220 | 64 | 148 | 6.0 | 21.0 | 0.00 | 0.00 | 0.00 | 72 | 1011.4 |
| 20260506230719 | 64 | 173 | 6.0 | 21.0 | 0.00 | 0.00 | 0.00 | 71 | 1011.3 |
| 20260506230217 | 64 | 129 | 6.0 | 19.0 | 0.00 | 0.00 | 0.00 | 71 | 1011.3 |
| 20260506225213 | 64 | 195 | 6.0 | 22.0 | 0.00 | 0.00 | 0.00 | 71 | 1011.5 |
| 20260506224712 | 64 | 175 | 13.0 | 22.0 | 0.00 | 0.00 | 0.00 | 70 | 1011.6 |
| 20260506223709 | 65 | 177 | 10.0 | 19.0 | 0.00 | 0.00 | 0.00 | 70 | 1011.5 |
| 20260506223200 | 65 | 194 | 9.0 | 19.0 | 0.00 | 0.00 | 0.00 | 70 | 1011.5 |
| 20260506222658 | 65 | 158 | 16.0 | 21.0 | 0.00 | 0.00 | 0.00 | 70 | 1011.5 |
| 20260506221651 | 65 | 250 | 8.0 | 21.0 | 0.00 | 0.00 | 0.00 | 69 | 1011.5 |
| 20260506221150 | 65 | 183 | 8.0 | 21.0 | 0.00 | 0.00 | 0.00 | 68 | 1011.7 |
| 20260506220645 | 65 | 176 | 9.0 | 18.0 | 0.00 | 0.00 | 0.00 | 68 | 1011.7 |
| 20260506220145 | 66 | 179 | 12.0 | 18.0 | 0.00 | 0.00 | 0.00 | 67 | 1011.5 |
| 20260506215137 | 66 | 192 | 9.0 | 15.0 | 0.00 | 0.00 | 0.00 | 66 | 1011.5 |
| 20260506214635 | 66 | 172 | 7.0 | 19.0 | 0.00 | 0.00 | 0.00 | 67 | 1011.5 |
| 20260506214115 | 66 | 204 | 6.0 | 21.0 | 0.00 | 0.00 | 0.00 | 65 | 1011.8 |
| 20260506213615 | 67 | 149 | 10.0 | 22.0 | 0.00 | 0.00 | 0.00 | 64 | 1011.8 |
| 20260506213115 | 67 | 169 | 12.0 | 22.0 | 0.00 | 0.00 | 0.00 | 63 | 1011.7 |
| 20260506212116 | 67 | 231 | 3.0 | 21.0 | 0.00 | 0.00 | 0.00 | 64 | 1011.8 |
| 20260506211615 | 67 | 166 | 7.0 | 19.0 | 0.00 | 0.00 | 0.00 | 64 | 1011.7 |
| 20260506211114 | 67 | 166 | 8.0 | 19.0 | 0.00 | 0.00 | 0.00 | 63 | 1012.1 |
| 20260506210614 | 67 | 193 | 10.0 | 30.0 | 0.00 | 0.00 | 0.00 | 63 | 1012.0 |
| 20260506210114 | 67 | 194 | 11.0 | 30.0 | 0.00 | 0.00 | 0.00 | 64 | 1011.7 |
| 20260506205110 | 68 | 203 | 10.0 | 20.0 | 0.00 | 0.00 | 0.00 | 63 | 1011.6 |
| 20260506204609 | 68 | 166 | 12.0 | 22.0 | 0.00 | 0.00 | 0.00 | 62 | 1011.7 |
| 20260506204109 | 68 | 185 | 10.0 | 26.0 | 0.00 | 0.00 | 0.00 | 62 | 1011.5 |
| 20260506203608 | 68 | 173 | 13.0 | 26.0 | 0.00 | 0.00 | 0.00 | 61 | 1011.7 |
| 20260506203105 | 68 | 189 | 13.0 | 20.0 | 0.00 | 0.00 | 0.00 | 60 | 1011.7 |
| 20260506202606 | 68 | 182 | 15.0 | 23.0 | 0.00 | 0.00 | 0.00 | 61 | 1011.7 |
| 20260506202103 | 68 | 169 | 7.0 | 23.0 | 0.00 | 0.00 | 0.00 | 62 | 1011.6 |
| 20260506201603 | 68 | 209 | 9.0 | 23.0 | 0.00 | 0.00 | 0.00 | 61 | 1011.6 |
| 20260506201116 | 69 | 183 | 6.0 | 22.0 | 0.00 | 0.00 | 0.00 | 61 | 1011.4 |
| 20260506200603 | 69 | 166 | 6.0 | 22.0 | 0.00 | 0.00 | 0.00 | 61 | 1011.5 |
| 20260506195602 | 69 | 165 | 9.0 | 19.0 | 0.00 | 0.00 | 0.00 | 61 | 1011.3 |
| 20260506195101 | 69 | 168 | 13.0 | 25.0 | 0.00 | 0.00 | 0.00 | 61 | 1011.5 |
| 20260506194558 | 69 | 153 | 9.0 | 25.0 | 0.00 | 0.00 | 0.00 | 60 | 1011.6 |
| 20260506194056 | 69 | 238 | 7.0 | 20.0 | 0.00 | 0.00 | 0.00 | 61 | 1011.4 |
| 20260506193557 | 69 | 204 | 9.0 | 20.0 | 0.00 | 0.00 | 0.00 | 60 | 1011.2 |
| 20260506193057 | 69 | 206 | 9.0 | 20.0 | 0.00 | 0.00 | 0.00 | 60 | 1011.2 |
| 20260506192555 | 69 | 172 | 8.0 | 24.0 | 0.00 | 0.00 | 0.00 | 60 | 1011.3 |
| 20260506192056 | 69 | 159 | 14.0 | 24.0 | 0.00 | 0.00 | 0.00 | 60 | 1011.4 |
| 20260506191556 | 70 | 171 | 8.0 | 25.0 | 0.00 | 0.00 | 0.00 | 59 | 1011.4 |
| 20260506190556 | 70 | 162 | 10.0 | 28.0 | 0.00 | 0.00 | 0.00 | 59 | 1011.4 |
| 20260506190107 | 70 | 164 | 14.0 | 28.0 | 0.00 | 0.00 | 0.00 | 58 | 1011.8 |
| 20260506185554 | 71 | 162 | 8.0 | 20.0 | 0.00 | 0.00 | 0.00 | 58 | 1011.8 |
| 20260506184554 | 71 | 167 | 11.0 | 30.0 | 0.00 | 0.00 | 0.00 | 57 | 1011.9 |
| 20260506184055 | 71 | 175 | 13.0 | 30.0 | 0.00 | 0.00 | 0.00 | 57 | 1011.8 |
| 20260506183552 | 71 | 188 | 11.0 | 17.0 | 0.00 | 0.00 | 0.00 | 56 | 1012.0 |
| 20260506183051 | 72 | 171 | 7.0 | 23.0 | 0.00 | 0.00 | 0.00 | 57 | 1012.1 |
| 20260506182550 | 72 | 190 | 11.0 | 26.0 | 0.00 | 0.00 | 0.00 | 57 | 1012.2 |
| 20260506182049 | 72 | 141 | 6.0 | 26.0 | 0.00 | 0.00 | 0.00 | 56 | 1012.2 |
| 20260506181549 | 72 | 171 | 13.0 | 20.0 | 0.00 | 0.00 | 0.00 | 57 | 1012.3 |
| 20260506181047 | 71 | 183 | 7.0 | 23.0 | 0.00 | 0.00 | 0.00 | 58 | 1012.3 |
| 20260506180544 | 72 | 169 | 14.0 | 27.0 | 0.00 | 0.00 | 0.00 | 58 | 1012.2 |
| 20260506180059 | 71 | 182 | 2.0 | 27.0 | 0.00 | 0.00 | 0.00 | 60 | 1012.2 |
| 20260506174532 | 72 | 166 | 13.0 | 28.0 | 0.00 | 0.00 | 0.00 | 57 | 1012.3 |
| 20260506174032 | 71 | 173 | 13.0 | 21.0 | 0.00 | 0.00 | 0.00 | 59 | 1012.3 |
| 20260506173532 | 70 | 237 | 14.0 | 21.0 | 0.00 | 0.00 | 0.00 | 61 | 1012.4 |
| 20260506173033 | 70 | 182 | 13.0 | 17.0 | 0.00 | 0.00 | 0.00 | 60 | 1012.5 |
| 20260506172532 | 70 | 179 | 6.0 | 20.0 | 0.00 | 0.00 | 0.00 | 62 | 1012.4 |
| 20260506172034 | 70 | 176 | 9.0 | 24.0 | 0.00 | 0.00 | 0.00 | 61 | 1012.5 |
| 20260506171031 | 71 | 224 | 6.0 | 22.0 | 0.00 | 0.00 | 0.00 | 60 | 1012.4 |
| 20260506170531 | 71 | 200 | 3.0 | 21.0 | 0.00 | 0.00 | 0.00 | 59 | 1012.4 |
| 20260506170030 | 71 | 180 | 12.0 | 20.0 | 0.00 | 0.00 | 0.00 | 60 | 1012.4 |
| 20260506165529 | 71 | 184 | 11.0 | 24.0 | 0.00 | 0.00 | 0.00 | 59 | 1012.1 |
| 20260506165028 | 71 | 177 | 14.0 | 24.0 | 0.00 | 0.00 | 0.00 | 60 | 1012.6 |